Hourly Data Report for September 27, 2013

All times are specified in Local Standard Time (LST). Add 1 hour to adjust for Daylight Saving Time where and when it is observed.

PETAWAWA AWOS 2
ONTARIO

45°57'00.000" N
77°19'00.000" W
130.10 m
6106396
71625
YWA

Download Data

Hourly Data (September 2013)
Hourly Data Report for September 27, 2013
Temp Definition
°C
Dew Point Temp Definition
°C
Rel Hum Definition
%
Wind Dir Definition
10's deg

Wind Spd Definition
km/h
Visibility Definition
km
Stn Press Definition
kPa
Hmdx Definition


Wind Chill Definition


Weather Definition


TIME
00:00 7.8 7.7 99   0 15.0 100.70      
01:00 6.8 6.7 99 22 4 15.0 100.74      
02:00 6.6 6.4 99 22 4 15.0 100.77      
03:00 6.9 6.4 97 25 4 15.0 100.80      
04:00 5.7 5.6 99   0 15.0 100.85      
05:00 5.6 5.6 100   0 1.4 100.89      
06:00 6.2 6.2 100 23 4 0.3 100.93      
07:00 7.1 7.1 100 25 6 0.3 101.02      
08:00 8.7 8.7 100   0 0.2 101.04      
09:00 9.9 9.9 100   0 2.7 101.06      
10:00 12.0 11.5 97 35 4 15.0 101.05      
11:00 15.4 12.9 85 5 4 15.0 101.01      
12:00 17.1 13.3 78 10 6 15.0 100.98      
13:00 19.2 13.4 69 7 6 15.0 100.92      
14:00 21.5 12.8 58 10 4 15.0 100.87      
15:00 22.2 12.9 56 7 4 15.0 100.83 25    
16:00 22.1 12.8 56 10 6 15.0 100.82 25    
17:00 21.2 12.9 59 16 4 15.0 100.82      
18:00 17.8 13.5 76   0 15.0 100.83      
19:00 14.3 13.4 94   0 15.0 100.86      
20:00 12.3 11.9 97   0 15.0 100.88      
21:00 11.6 11.3 98   0 15.0 100.91      
22:00 14.6 13.6 94 11 4 15.0 100.92      
23:00 14.2 13.2 94 13 4 15.0 100.96      

Notes on Data Quality.

Legend

  • E = Estimated
  • M = Missing
  • NA = Not Available
  • ‡ = Partner data that is not subject to review by the National Climate Archives
Date modified: